Regional Weather Roundup
Issued by NWS

Home | Current Version | Previous Version | Graphics & Text | Print | Product List | Glossary On
Versions: 1 2 3 4 5 6 7 8 9 10 11 12 13 14 15 16 17 18 19 20 21 22 23 24 25 26 27 28
000
ASUS45 KBOI 240510
RWRID
WEATHER ROUNDUP FOR IDAHO
NATIONAL WEATHER SERVICE BOISE ID
1100 PM MDT WED APR 23 2014

NOTE: "FAIR" INDICATES FEW OR NO CLOUDS BELOW 12000 FEET
WITH NO SIGNIFICANT WEATHER AND/OR OBSTRUCTIONS TO VISIBILITY

IDZ012-014-240600-
SOUTHWEST IDAHO


CITY           SKY/WX    TMP DP  RH WIND       PRES   REMARKS
BOISE          MOCLDY    50  33  52 SE6       29.97R
CALDWELL       CLOUDY    52  28  40 S9        29.97F
MOUNTAIN HOME  PTCLDY    43  28  54 E8        29.97F
$$

IDZ016-017-240600-
SOUTHCENTRAL IDAHO


CITY           SKY/WX    TMP DP  RH WIND       PRES   REMARKS
BURLEY         MOCLDY    37  30  75 S6        30.01S WCI  32
JEROME         PTCLDY    40  27  59 E9        30.01S WCI  34
TWIN FALLS     CLEAR     41  28  60 S12       30.00F
$$

IDZ019>023-240600-
SOUTHEAST IDAHO


CITY           SKY/WX    TMP DP  RH WIND       PRES   REMARKS
IDAHO FALLS    PTCLDY    42  28  57 S14       30.00R
POCATELLO      CLEAR     41  27  57 S13       30.03S
REXBURG        PTCLDY    41  22  46 S14       29.97S
$$

IDZ006-010-011-018-031-032-240600-
CENTRAL IDAHO MOUNTAINS


CITY           SKY/WX    TMP DP  RH WIND       PRES   REMARKS
MCCALL         CLOUDY    36  30  79 CALM      29.94S
HAILEY         CLOUDY    37  23  56 NW8       30.02S WCI  31
STANLEY          N/A     32  22  66 E7        29.99R WCI  26
SALMON         PTCLDY    41  21  45 CALM      29.91S
CHALLIS        PTCLDY    41  19  41 S10       29.95S
$$

IDZ002-004-006-007-026-240600-
NORTHERN IDAHO


CITY           SKY/WX    TMP DP  RH WIND       PRES   REMARKS
LEWISTON       LGT RAIN  45  37  73 E7        29.88F
LOWELL           N/A     42  41  96 CALM      29.97S
COEUR D`ALENE  CLOUDY    43  36  75 SE8       29.86F
MULLAN PASS    SNOW      27  27 100 VRB5      29.82R VSB 1/4 WCI  21
$$



USA.gov is the U.S. government's official web portal to all federal, state and local government web resources and services.